Tracking 30995 objects as of 5-Jul-2025
HD Live streaming from Space Station
objects crossing your sky now

STARLINK-3895

Track STARLINK-3895 now!
10-day predictions
STARLINK-3895 is classified as:


NORAD ID: 52583
Int'l Code: 2022-051AZ
Perigee: 545.9 km
Apogee: 547.9 km
Inclination: 53.2 °
Period: 95.4 minutes
Semi major axis: 6917 km
RCS: Unknown
Launch date: May 13, 2022
Source: United States (US)
Launch site: AIR FORCE WESTERN TEST RANGE (AFWTR)
Your satellite tracking list
Your tracking list is empty




NASA's NSSDC Master Catalog

Two Line Element Set (TLE):
1 52583U 22051AZ  25186.33010246 -.00001057  00000-0 -48340-4 0  9992
2 52583  53.2168 149.5584 0001407  80.6173 279.4978 15.08841766174243
Source of the keplerian elements: AFSPC